Temperature
13 13 13 13 13 13 13 13 12 13 12 12 12 12 12 12 12 12 12 12 12 12 12 12 12 12 12 12 12 12 11 11 11 11 12 12 12 12 12 11 11 11 11
13 13 13 13 13 12 12 12 12 12 12 12 12 12 12 12 12 12 12 12 12 12 12 12 11 11 11 11 11 11 11 11 11 11 11 11 11 11 11 11 11 11 11
13 13 13 12 12 12 12 12 12 12 12 12 12 12 12 12 12 12 12 12 12 11 11 11 11 11 11 11 11 11 11 11 10 10 11 11 11 11 11 11 11 11 11
13 13 13 12 12 12 12 12 12 12 12 12 12 12 12 12 12 12 12 12 11 11 11 11 11 11 11 11 10 10 10 10 10 10 10 10 10 10 10 10 10 10 10
13 13 13 13 13 12 12 12 12 12 12 12 12 12 12 12 12 12 12 11 11 11 11 11 11 11 11 11 10 10 10 10 10 10 10 10 10 10 10 10 10 10 10
13 13 13 13 13 13 12 12 12 12 12 12 12 12 11 11 12 11 11 11 11 11 11 11 10 10 10 10 10 10 10 10 10 10 9 9 9 10 10 9 9 9 9
13 13 13 13 13 13 12 12 12 12 12 12 12 11 11 11 11 11 11 11 11 10 10 10 10 10 10 10 10 10 10 10 10 9 9 9 9 9 9 9 9 9 9
13 13 13 13 13 12 12 12 12 12 12 12 12 11 11 11 11 11 11 11 11 10 10 10 10 10 10 10 10 10 10 9 9 9 9 9 9 9 9 9 9 9 9
13 13 13 13 12 12 12 12 12 12 12 12 12 11 11 11 11 11 11 11 11 10 10 10 10 10 10 10 9 9 9 9 9 9 9 9 9 9 9 9 9 8 8
13 13 13 12 12 12 12 12 12 12 12 12 12 11 11 11 11 11 11 11 10 10 10 10 10 10 9 9 9 9 9 9 9 9 9 9 9 9 9 9 8 8 8
13 13 12 12 12 12 12 12 12 12 12 12 12 12 11 11 11 11 11 10 10 10 10 10 10 10 9 9 9 9 9 9 9 9 9 9 9 9 9 8 8 8 8
12 12 12 12 12 12 12 12 12 12 12 12 12 12 11 11 11 11 11 10 10 10 10 9 9 9 9 9 9 9 9 9 9 8 8 8 8 8 8 8 8 8 8
12 12 12 12 12 12 12 12 12 12 12 12 12 12 11 11 11 11 11 10 10 10 10 9 9 9 9 9 9 9 9 9 8 8 8 8 8 8 8 8 8 8 8
12 12 12 12 12 12 12 12 12 12 12 12 12 12 11 11 11 11 10 10 10 10 9 9 9 9 9 9 9 9 9 8 8 8 8 8 8 8 8 8 8 8 8
12 12 12 13 13 13 13 13 13 13 12 12 12 11 11 11 11 10 10 10 10 10 9 9 9 9 9 9 9 9 8 8 8 8 8 8 8 7 7 7 7 7 7
12 12 13 13 13 13 13 13 13 13 13 12 12 12 11 11 11 10 10 10 10 10 10 9 9 9 9 9 9 8 8 8 8 8 8 8 7 7 7 7 7 7 7
13 13 13 13 13 13 13 13 13 13 13 13 12 12 11 11 11 10 10 10 10 10 9 9 9 9 9 9 9 8 8 8 8 8 7 7 7 7 7 7 7 6 6
13 13 13 13 13 14 14 14 13 13 13 13 12 12 12 11 11 11 10 10 10 10 9 9 9 9 9 8 8 8 8 8 8 7 7 7 7 7 7 6 6 6 6
13 13 13 13 13 14 14 14 14 14 13 13 12 12 12 12 11 11 10 10 10 10 9 9 9 9 8 8 8 8 8 8 7 7 7 7 6 6 6 6 6 6 6
13 13 13 13 14 14 14 14 14 14 13 13 13 12 12 12 11 11 11 10 10 10 9 9 9 8 8 8 8 8 7 7 7 7 6 6 6 6 6 6 6 6 6
13 13 14 14 14 14 14 14 14 14 14 13 13 13 12 12 11 11 11 10 10 9 9 9 8 8 8 8 8 7 7 7 6 6 6 5 5 6 6 6 6 6 6
13 14 14 14 14 14 14 14 14 14 14 13 13 13 12 12 11 11 11 10 10 9 9 8 8 8 8 7 7 7 7 6 6 6 5 5 5 5 5 5 5 5 5
13 14 14 14 14 14 14 14 14 14 13 13 13 13 12 12 11 11 10 10 10 9 9 8 8 8 7 7 7 7 6 6 6 5 5 5 5 5 5 5 5 5 5
13 14 14 14 14 14 14 14 14 13 13 13 13 12 12 12 11 11 10 10 10 9 9 8 8 8 7 7 7 6 6 6 6 5 5 5 5 5 5 5 5 5 5
13 13 14 14 14 14 14 14 13 13 13 13 13 12 12 12 11 11 10 10 9 9 8 8 8 7 7 7 6 6 6 6 5 5 5 5 4 4 4 5 5 5 5
13 13 14 14 14 14 13 13 13 13 13 13 12 12 12 11 11 11 10 10 9 9 8 8 7 7 7 7 6 6 6 5 5 5 5 4 4 4 4 4 4 4 5
Wind_Speed
3 3 3 3 3 3 3 3 3 3 4 4 3 4 4 3 3 4 4 4 4 4 4 4 4 4 4 4 3 3 3 3 4 4 3 3 2 2 1 2 4 5 7
3 3 3 3 3 3 3 3 3 3 4 4 4 4 5 4 3 3 4 4 4 4 4 4 4 3 3 3 3 3 3 3 3 5 4 3 3 3 2 3 3 3 3
5 4 4 3 4 3 3 3 3 3 3 4 4 4 4 4 3 3 4 4 4 3 3 2 3 3 3 3 3 3 3 4 3 3 4 3 2 3 2 3 4 3 4
4 3 3 3 3 3 2 3 3 3 3 3 3 3 3 4 4 4 4 4 4 4 3 2 2 2 3 3 3 3 3 3 3 3 4 3 3 3 2 3 3 3 3
5 3 3 3 2 2 2 2 3 3 4 3 4 4 5 4 5 6 5 5 4 4 3 3 2 3 4 3 4 4 4 3 3 3 3 4 3 3 3 3 3 3 4
5 4 4 3 3 2 2 3 4 4 4 4 4 4 5 5 7 8 6 5 4 3 3 3 3 3 5 5 5 5 5 4 3 3 3 4 4 4 3 4 3 3 3
4 4 4 3 3 2 3 4 4 4 4 3 3 3 4 5 7 7 8 5 4 3 3 3 4 4 4 4 4 6 5 5 5 4 5 5 5 4 4 5 4 4 4
4 4 5 4 4 3 3 3 3 3 3 2 2 2 3 5 6 7 8 5 3 3 3 2 2 3 5 5 5 4 4 4 5 4 4 6 6 4 4 5 5 4 4
5 5 5 4 4 4 4 4 3 3 3 2 2 2 3 3 5 7 7 4 4 4 3 3 3 3 5 7 5 5 5 5 5 6 7 8 9 9 5 3 4 3 5
5 5 4 4 4 3 3 3 3 3 3 3 2 2 2 2 3 6 7 4 5 4 3 2 5 4 5 6 5 5 6 6 6 7 6 6 6 6 5 4 4 4 4
4 4 4 3 3 2 2 2 2 3 2 2 2 2 2 2 3 5 6 4 5 5 4 3 2 4 6 7 6 5 7 7 6 6 5 4 3 3 2 3 4 3 4
4 4 4 4 4 3 3 2 2 3 3 2 2 1 1 2 4 3 5 5 5 4 4 4 3 5 7 9 7 7 9 8 5 5 4 3 3 3 3 3 3 4 4
3 3 3 3 3 2 2 2 2 2 2 3 3 3 3 2 3 4 5 6 7 4 4 7 7 8 8 7 7 8 7 4 3 4 4 4 3 3 3 3 3 3 4
4 3 3 2 2 1 1 2 2 2 2 3 4 4 3 2 3 3 4 4 5 5 5 7 8 7 6 6 6 4 3 3 3 4 4 4 4 3 3 3 3 3 4
3 3 3 3 2 1 1 2 2 2 1 1 2 3 3 4 3 4 4 4 5 5 6 5 4 4 3 3 3 3 3 2 3 3 4 4 3 3 3 3 3 4 4
3 4 4 3 2 2 1 1 2 1 1 1 0 1 1 1 3 5 6 7 8 8 5 5 4 4 5 5 4 4 3 3 3 3 3 3 3 3 3 4 4 4 4
3 4 4 4 3 3 2 2 1 1 2 2 2 3 3 4 5 7 7 8 8 6 4 4 4 4 4 4 4 4 4 4 4 3 3 4 4 4 3 3 4 4 4
4 5 5 4 4 3 3 3 3 2 1 2 3 6 6 7 8 8 7 7 4 3 3 4 4 4 5 4 4 4 4 4 4 4 3 4 4 4 4 4 4 5 5
5 4 4 4 4 4 4 4 4 3 1 0 1 2 5 7 8 7 5 4 5 4 4 4 3 4 4 4 4 4 4 4 4 4 4 4 5 4 4 4 4 6 5
4 5 6 5 5 5 4 4 4 2 2 1 1 1 1 2 2 2 2 3 4 4 4 5 4 4 4 4 4 5 5 4 5 5 5 5 5 4 4 5 5 5 5
5 4 6 6 5 5 5 4 4 3 3 2 1 0 1 2 3 3 2 2 3 4 4 4 4 4 4 4 5 5 6 5 5 5 6 6 6 5 5 5 4 5 5
6 5 4 4 4 3 4 5 4 4 4 3 1 0 2 2 3 3 3 2 3 3 3 4 4 4 4 5 4 5 5 5 5 6 6 6 6 5 5 5 5 5 5
6 6 5 4 4 3 4 4 4 4 4 3 2 2 2 2 3 3 3 2 2 2 3 3 4 5 5 5 5 5 5 5 5 6 7 7 6 6 5 5 6 6 6
6 6 5 4 4 4 4 4 3 3 4 3 2 2 2 2 2 2 2 2 2 3 3 3 4 5 6 5 5 6 6 6 6 5 7 7 7 6 5 5 5 7 6
6 5 5 4 4 4 4 4 4 4 4 4 2 2 2 2 2 1 2 2 3 3 3 3 3 4 6 7 7 7 7 8 7 7 7 6 7 6 6 6 6 6 6
6 6 5 4 3 4 4 4 4 3 3 3 3 3 3 3 2 3 3 3 3 3 3 3 4 5 6 6 6 6 6 8 9 9 7 5 6 5 6 5 8 7 7
Wind_Direction
341 344 330 323 323 316 318 323 323 318 310 300 307 303 295 291 295 293 290 281 277 279 282 278 279 290 300 303 303 289 280 279 279 294 300 298 279 277 256 234 246 214 210
349 347 347 344 335 323 325 319 310 310 311 311 308 305 306 312 309 303 303 301 295 290 294 304 306 304 311 307 305 300 293 283 277 286 291 293 291 267 257 248 261 242 230
355 355 360 343 334 333 327 318 316 313 316 319 316 320 325 325 330 326 322 317 318 312 309 310 313 321 313 304 293 299 300 298 289 287 291 292 296 298 293 280 271 261 259
351 359 350 341 339 332 329 328 324 326 329 333 338 341 344 355 6 356 344 334 340 339 336 337 333 320 305 303 296 297 296 297 293 289 285 292 293 294 307 297 289 283 283
342 346 342 342 338 338 338 332 337 345 348 356 0 1 3 15 11 7 352 346 345 342 352 356 343 344 340 319 318 318 312 302 300 301 300 308 306 318 316 302 303 302 285
346 348 352 351 346 355 353 1 3 0 353 360 4 6 16 14 21 19 4 344 347 343 352 343 335 357 348 337 326 314 309 305 306 304 303 299 301 304 307 302 303 304 297
347 348 356 354 353 9 5 14 8 355 352 358 6 21 39 37 25 10 360 338 329 329 333 332 337 348 356 339 321 314 306 279 266 270 284 288 290 294 298 297 292 288 284
349 354 2 8 10 12 14 10 4 352 342 352 355 22 51 41 25 8 352 335 332 332 329 335 345 354 353 340 329 331 322 309 285 269 273 278 285 284 281 281 277 281 283
354 3 11 10 6 3 12 4 359 346 338 340 351 26 52 49 21 1 352 337 341 337 357 22 14 21 357 350 340 330 322 314 306 294 277 276 279 278 273 288 284 281 290
357 1 4 2 353 355 1 357 352 348 353 345 357 18 54 52 21 1 354 345 346 342 359 44 37 17 352 346 335 324 317 316 319 314 298 283 276 276 261 242 264 277 290
355 1 359 352 339 351 5 355 341 342 339 327 336 356 47 63 40 11 1 353 344 341 344 353 5 343 332 327 317 300 294 302 305 300 298 300 300 295 275 261 263 261 275
348 349 346 340 333 3 11 340 332 331 332 329 334 349 60 73 51 12 346 332 325 331 334 341 343 324 319 313 309 297 301 306 303 308 313 319 321 315 306 285 274 259 250
336 332 323 325 323 333 342 330 334 335 336 343 359 6 10 27 21 10 348 334 331 329 331 331 323 307 308 305 297 296 303 311 313 316 320 323 320 317 316 314 303 283 278
321 316 305 298 292 313 323 328 335 341 352 352 356 1 360 11 14 0 343 335 336 330 326 320 311 300 302 308 316 315 311 323 323 320 321 319 324 331 331 328 325 317 311
307 302 298 294 280 273 307 336 333 5 31 358 357 355 354 356 351 336 322 324 329 328 321 306 310 324 328 326 326 327 322 318 315 311 314 322 331 336 330 327 323 321 322
297 302 298 288 275 244 219 276 2 232 168 126 129 304 352 344 301 309 310 307 312 323 324 318 330 331 331 331 332 335 337 341 334 325 326 331 334 333 332 331 329 325 326
282 296 300 301 293 277 261 243 249 222 211 231 266 266 253 262 283 295 304 312 309 318 316 319 325 326 330 335 340 348 352 347 343 347 347 338 333 334 335 331 328 328 327
274 280 286 292 298 300 295 283 272 256 225 228 236 238 242 253 267 279 305 323 317 319 311 322 329 333 334 338 346 349 345 348 351 351 349 339 333 330 330 328 327 329 326
290 290 294 299 300 291 290 294 297 307 326 74 185 240 241 255 265 273 289 299 312 322 322 323 329 331 336 345 346 343 346 353 356 352 348 337 329 329 330 328 328 323 320
270 271 279 287 293 293 296 303 307 314 321 343 293 335 316 278 279 286 270 289 307 323 333 340 346 346 347 351 352 347 346 353 355 349 342 333 332 333 330 325 326 324 322
275 264 253 273 286 298 305 309 308 309 318 330 343 125 223 290 304 308 309 307 324 340 346 340 342 347 351 350 352 346 344 352 355 349 340 337 337 335 329 327 328 328 330
284 285 279 279 281 288 302 307 310 316 320 322 342 111 221 297 337 346 353 355 355 352 353 342 341 349 353 349 350 344 350 357 355 349 336 331 330 331 332 331 331 329 332
281 281 282 282 282 268 271 289 302 312 321 331 351 11 350 338 345 345 347 358 9 7 1 356 353 5 12 8 3 5 4 360 347 335 331 328 327 325 327 329 330 333 337
280 282 285 290 297 298 297 299 306 317 320 321 345 356 331 328 337 345 351 358 15 21 14 9 13 14 15 13 12 23 23 7 346 335 330 321 319 325 331 331 330 334 336
282 285 283 289 296 305 308 309 315 325 325 326 340 336 322 326 334 8 25 28 28 19 14 11 18 22 25 26 25 26 19 8 358 342 325 318 320 326 331 331 333 333 337
279 276 274 279 284 287 292 298 307 317 322 329 341 337 334 344 8 34 32 24 17 14 12 16 26 42 37 32 32 32 18 1 351 342 329 318 322 334 340 338 334 336 337
Height
1476 1474 1473 1471 1470 1470 1469 1468 1468 1468 1467 1466 1466 1465 1464 1462 1461 1460 1459 1458 1456 1455 1454 1453 1452 1452 1451 1450 1450 1449 1448 1447 1446 1445 1445 1444 1443 1442 1442 1441 1441 1441 1441
1476 1473 1472 1471 1470 1469 1468 1467 1467 1466 1466 1465 1464 1463 1462 1461 1459 1458 1457 1455 1454 1453 1452 1451 1449 1449 1448 1447 1446 1445 1444 1443 1443 1441 1441 1440 1440 1439 1438 1438 1437 1437 1437
1475 1473 1472 1471 1469 1468 1468 1467 1466 1466 1465 1464 1463 1461 1460 1459 1458 1456 1455 1453 1452 1450 1449 1448 1447 1446 1445 1444 1443 1442 1441 1441 1440 1439 1438 1437 1437 1436 1435 1434 1434 1434 1433
1475 1473 1472 1470 1469 1468 1467 1467 1466 1465 1464 1463 1461 1460 1459 1457 1456 1454 1453 1451 1450 1448 1447 1446 1445 1444 1443 1442 1441 1440 1439 1438 1437 1436 1435 1434 1434 1433 1432 1431 1430 1430 1429
1475 1473 1471 1470 1469 1468 1467 1466 1465 1464 1463 1462 1461 1459 1458 1456 1455 1453 1451 1450 1448 1447 1446 1445 1443 1443 1442 1441 1439 1438 1437 1436 1435 1434 1433 1432 1431 1430 1429 1428 1428 1426 1426
1475 1474 1472 1470 1469 1468 1467 1466 1465 1463 1463 1461 1460 1458 1457 1455 1454 1452 1451 1449 1447 1446 1444 1443 1442 1441 1440 1439 1438 1437 1436 1434 1433 1431 1430 1430 1429 1428 1427 1426 1425 1423 1422
1475 1474 1472 1471 1469 1468 1467 1466 1465 1464 1462 1461 1459 1458 1456 1455 1454 1452 1450 1448 1447 1445 1444 1442 1441 1440 1438 1437 1435 1434 1433 1432 1431 1430 1428 1427 1426 1425 1424 1423 1422 1420 1419
1476 1474 1472 1471 1469 1468 1467 1466 1465 1463 1462 1461 1459 1458 1457 1455 1454 1452 1450 1448 1446 1445 1443 1441 1440 1438 1437 1435 1433 1432 1431 1430 1428 1427 1426 1424 1423 1422 1421 1420 1419 1417 1416
1476 1474 1473 1472 1470 1469 1468 1466 1465 1464 1462 1461 1460 1458 1457 1455 1453 1451 1449 1447 1445 1444 1443 1441 1439 1437 1435 1433 1432 1430 1428 1427 1426 1424 1423 1421 1420 1419 1418 1416 1415 1414 1412
1476 1474 1473 1471 1470 1469 1468 1467 1465 1464 1462 1461 1460 1458 1457 1455 1453 1451 1449 1447 1445 1443 1442 1440 1438 1436 1434 1432 1430 1428 1426 1424 1423 1421 1420 1419 1417 1416 1415 1414 1412 1411 1410
1476 1474 1473 1472 1471 1469 1468 1467 1466 1464 1462 1461 1460 1458 1456 1455 1453 1451 1449 1447 1445 1443 1441 1439 1437 1435 1433 1431 1429 1427 1425 1423 1421 1419 1418 1416 1415 1413 1412 1411 1410 1408 1407
1476 1474 1473 1472 1471 1470 1468 1467 1465 1464 1463 1461 1460 1458 1457 1455 1453 1451 1449 1447 1445 1443 1441 1439 1437 1435 1432 1430 1427 1425 1423 1421 1419 1418 1416 1414 1412 1411 1409 1408 1406 1405 1404
1475 1474 1473 1472 1471 1470 1469 1467 1466 1464 1463 1461 1460 1458 1457 1455 1453 1450 1448 1446 1444 1442 1440 1438 1436 1433 1431 1429 1426 1424 1422 1420 1418 1416 1414 1413 1411 1409 1407 1405 1404 1402 1401
1474 1473 1472 1471 1470 1469 1468 1467 1466 1464 1463 1461 1460 1458 1456 1454 1452 1450 1447 1445 1443 1441 1439 1437 1435 1432 1430 1428 1425 1423 1421 1419 1417 1415 1413 1411 1409 1407 1405 1404 1402 1400 1398
1474 1472 1471 1470 1470 1468 1467 1466 1465 1464 1463 1461 1460 1458 1456 1454 1452 1450 1447 1445 1443 1441 1438 1436 1434 1432 1429 1427 1424 1422 1420 1418 1416 1414 1412 1410 1408 1406 1404 1402 1401 1399 1397
1473 1472 1471 1470 1469 1468 1466 1465 1464 1463 1462 1461 1459 1458 1456 1454 1451 1449 1447 1445 1442 1440 1438 1435 1433 1431 1429 1426 1424 1422 1420 1417 1415 1413 1411 1409 1407 1405 1403 1401 1400 1398 1396
1472 1471 1470 1469 1468 1467 1466 1465 1463 1462 1461 1459 1458 1456 1455 1453 1450 1448 1446 1444 1442 1439 1437 1435 1433 1430 1428 1426 1424 1421 1419 1417 1415 1413 1410 1408 1406 1404 1402 1400 1398 1396 1394
1471 1470 1469 1468 1467 1466 1465 1464 1463 1461 1460 1458 1457 1455 1453 1451 1449 1447 1445 1443 1441 1439 1437 1434 1432 1430 1428 1426 1423 1421 1419 1416 1414 1412 1409 1407 1405 1403 1401 1399 1397 1395 1393
1470 1469 1468 1467 1466 1465 1464 1463 1462 1461 1459 1457 1455 1454 1452 1450 1448 1446 1444 1442 1440 1438 1436 1434 1432 1430 1427 1425 1422 1420 1418 1415 1413 1410 1408 1406 1404 1402 1400 1398 1396 1394 1391
1468 1467 1467 1466 1465 1464 1463 1462 1461 1459 1458 1456 1455 1453 1451 1449 1447 1445 1443 1441 1439 1437 1435 1433 1431 1429 1426 1424 1421 1419 1416 1414 1411 1409 1407 1405 1402 1400 1398 1396 1394 1392 1390
1467 1466 1465 1464 1463 1462 1461 1460 1459 1458 1457 1455 1454 1452 1450 1448 1446 1444 1443 1440 1439 1437 1434 1432 1430 1427 1425 1422 1420 1417 1415 1413 1410 1407 1405 1403 1400 1398 1396 1395 1392 1390 1388
1465 1464 1463 1462 1461 1460 1459 1459 1458 1457 1455 1454 1452 1450 1449 1447 1446 1444 1442 1440 1438 1436 1433 1431 1429 1426 1423 1421 1418 1416 1413 1411 1408 1405 1403 1401 1399 1397 1395 1393 1391 1389 1387
1462 1462 1461 1460 1460 1459 1458 1457 1456 1455 1454 1453 1451 1450 1448 1446 1444 1442 1440 1439 1437 1434 1432 1429 1427 1424 1422 1419 1416 1414 1411 1408 1406 1403 1401 1399 1397 1396 1394 1392 1390 1388 1385
1460 1460 1459 1458 1457 1457 1456 1455 1454 1453 1452 1451 1450 1448 1446 1444 1443 1441 1439 1437 1435 1433 1430 1428 1425 1423 1420 1417 1414 1412 1409 1407 1404 1402 1400 1398 1396 1395 1393 1391 1389 1387 1385
1457 1457 1456 1456 1455 1455 1454 1453 1452 1451 1450 1449 1448 1447 1445 1443 1441 1439 1438 1436 1434 1432 1429 1427 1424 1421 1418 1415 1413 1410 1407 1405 1403 1400 1398 1396 1395 1393 1392 1390 1388 1386 1384
1455 1455 1454 1454 1453 1453 1452 1451 1450 1449 1448 1448 1446 1445 1443 1442 1440 1438 1436 1434 1432 1430 1428 1425 1422 1419 1416 1414 1411 1409 1406 1403 1401 1399 1397 1395 1394 1392 1391 1389 1387 1385 1384